Date String (YYYY-MM-DD hh:mm:ss) UTC,Instrument flags,absolute air pressure of the measurement (hPa),sample flow rate (lpm),inlet stack bypass flow (lpm),air temperature of the measurement (°C),ambient temperature measured by the external sensor (°C),aerosol sample conditioner tube jacket temperature (°C),OPC LED temperature (°C),internal box temperature (°C),relative humidity of the measurement (%),span deviation,mass concentration of particles derived from Lorenz-Mie calculation of OPC scattering (μg/m³),mass concentration of particles derived from Lorenz-Mie calculation of OPC scattering (μg/m³),mass concentration of particles derived from Lorenz-Mie calculation of OPC scattering (μg/m³)
DateTimeUTC,F1_M11,P_M11,Q1_M11,Q2_M11,T1_M11,T2_M11,T3_M11,T4_M11,T5_M11,U1_M11,ZSPAN_M11,X0_M11,X2_M11,X1_M11
2024-03-07 20:00:00,SystemResetWarning,0821.7,5.00,000.00,018.7,018.0,000.0,027.2,020.4,26.7,0002.5,0016.17,0009.38,0008.19
2024-03-07 20:01:00,SystemResetWarning,0821.7,5.01,000.00,018.7,018.0,000.0,027.2,020.4,26.8,0002.4,0016.87,0009.37,0008.15
2024-03-07 20:02:00,SystemResetWarning,0821.7,4.99,000.00,018.7,018.0,000.0,027.2,020.4,26.9,0002.4,0017.70,0009.35,0008.14
2024-03-07 20:03:00,SystemResetWarning,0821.7,5.00,000.00,018.7,017.9,000.0,027.2,020.4,26.9,0002.4,0017.84,0009.33,0008.12
2024-03-07 20:04:00,SystemResetWarning,0821.7,5.00,000.00,018.7,017.9,000.0,027.2,020.4,27.0,0002.2,0017.66,0009.32,0008.10
2024-03-07 20:05:00,SystemResetWarning,0821.7,5.00,000.00,018.6,017.9,000.0,027.2,020.3,27.0,0001.6,0018.10,0009.37,0008.10
2024-03-07 20:06:00,SystemResetWarning,0821.7,4.99,000.00,018.6,017.8,000.0,027.2,020.3,27.0,0001.5,0018.32,0009.43,0008.13
2024-03-07 20:07:00,SystemResetWarning,0821.7,5.00,000.00,018.6,017.8,000.0,027.2,020.3,27.0,0001.6,0018.97,0009.44,0008.12
2024-03-07 20:08:00,SystemResetWarning,0821.7,4.99,000.00,018.6,017.8,000.0,027.2,020.3,27.0,0001.4,0019.27,0009.41,0008.11
2024-03-07 20:09:00,SystemResetWarning,0821.7,5.00,000.00,018.6,017.8,000.0,027.2,020.3,26.8,0001.4,0019.08,0009.35,0008.10
2024-03-07 20:10:00,SystemResetWarning,0821.7,5.00,000.00,018.6,017.7,000.0,027.2,020.3,26.8,0001.3,0018.95,0009.32,0008.09
2024-03-07 20:11:00,SystemResetWarning,0821.6,5.01,000.00,018.6,017.7,000.0,027.1,020.2,26.7,0001.2,0018.87,0009.37,0008.10
2024-03-07 20:12:00,SystemResetWarning,0821.6,5.00,000.00,018.5,017.7,000.0,027.1,020.2,26.7,0001.4,0019.02,0009.36,0008.12
2024-03-07 20:13:00,SystemResetWarning,0821.6,5.00,000.00,018.5,017.7,000.0,027.1,020.2,26.7,0001.6,0018.42,0009.38,0008.13
2024-03-07 20:14:00,SystemResetWarning,0821.6,5.01,000.00,018.5,017.7,000.0,027.1,020.2,26.6,0001.3,0018.02,0009.34,0008.11
2024-03-07 20:15:00,SystemResetWarning,0821.6,4.99,000.00,018.5,017.7,000.0,027.1,020.2,26.6,0001.1,0017.99,0009.36,0008.11
2024-03-07 20:16:00,SystemResetWarning,0821.6,5.00,000.00,018.5,017.7,000.0,027.1,020.2,26.7,0001.5,0017.66,0009.37,0008.09
2024-03-07 20:17:00,SystemResetWarning,0821.6,5.00,000.00,018.5,017.7,000.0,027.1,020.2,26.7,0001.7,0017.54,0009.39,0008.09
2024-03-07 20:18:00,SystemResetWarning,0821.6,5.02,000.00,018.5,017.7,000.0,027.1,020.2,26.8,0001.7,0017.95,0009.38,0008.09
2024-03-07 20:19:00,SystemResetWarning,0821.6,5.00,000.00,018.5,017.7,000.0,027.1,020.2,26.8,0001.8,0017.78,0009.37,0008.12
2024-03-07 20:20:00,SystemResetWarning,0821.6,4.99,000.00,018.5,017.7,000.0,027.1,020.2,26.9,0002.0,0018.27,0009.46,0008.16
2024-03-07 20:21:00,SystemResetWarning,0821.6,4.99,000.00,018.5,017.7,000.0,027.1,020.2,27.0,0002.2,0018.92,0009.53,0008.19
2024-03-07 20:22:00,SystemResetWarning,0821.6,5.01,000.00,018.5,017.7,000.0,027.0,020.2,27.3,0002.1,0019.64,0009.61,0008.22
2024-03-07 20:23:00,SystemResetWarning,0821.6,5.02,000.00,018.4,017.7,000.0,027.0,020.2,27.4,0001.8,0019.37,0009.67,0008.24
2024-03-07 20:24:00,SystemResetWarning,0821.6,5.00,000.00,018.4,017.7,000.0,027.0,020.2,27.5,0001.4,0020.26,0009.72,0008.25
2024-03-07 20:25:00,SystemResetWarning,0821.6,4.99,000.00,018.4,017.7,000.0,027.0,020.2,27.5,0001.5,0021.01,0009.74,0008.29
2024-03-07 20:26:00,SystemResetWarning,0821.6,5.00,000.00,018.4,017.7,000.0,027.0,020.2,27.5,0001.8,0020.80,0009.69,0008.31
2024-03-07 20:27:00,SystemResetWarning,0821.6,5.01,000.00,018.4,017.7,000.0,027.0,020.1,27.6,0001.7,0020.52,0009.67,0008.33
2024-03-07 20:28:00,SystemResetWarning,0821.6,5.00,000.00,018.4,017.7,000.0,027.0,020.1,27.6,0001.7,0021.03,0009.69,0008.35
2024-03-07 20:29:00,SystemResetWarning,0821.7,5.01,000.00,018.4,017.7,000.0,027.0,020.1,27.6,0001.9,0021.02,0009.66,0008.35
2024-03-07 20:30:00,SystemResetWarning,0821.6,4.99,000.00,018.4,017.6,000.0,027.0,020.1,27.7,0001.8,0021.42,0009.67,0008.35
2024-03-07 20:31:00,SystemResetWarning,0821.6,4.99,000.00,018.4,017.6,000.0,027.0,020.1,27.7,0001.6,0021.09,0009.69,0008.34
2024-03-07 20:32:00,SystemResetWarning,0821.7,5.00,000.00,018.4,017.5,000.0,027.0,020.1,27.7,0001.4,0020.36,0009.67,0008.33
2024-03-07 20:33:00,SystemResetWarning,0821.6,5.00,000.00,018.3,017.5,000.0,027.0,020.0,27.7,0001.5,0019.65,0009.62,0008.32
2024-03-07 20:34:00,SystemResetWarning,0821.6,5.00,000.00,018.3,017.5,000.0,027.0,020.0,27.7,0001.5,0019.52,0009.58,0008.32
2024-03-07 20:35:00,SystemResetWarning,0821.7,5.00,000.00,018.3,017.5,000.0,027.0,020.0,27.7,0001.4,0018.95,0009.56,0008.33
2024-03-07 20:36:00,SystemResetWarning,0821.6,5.00,000.00,018.3,017.5,000.0,026.9,020.1,27.8,0001.6,0018.17,0009.60,0008.33
2024-03-07 20:37:00,SystemResetWarning,0821.6,5.00,000.00,018.3,017.6,000.0,026.9,020.1,27.7,0001.6,0018.81,0009.66,0008.35
2024-03-07 20:38:00,SystemResetWarning,0821.6,5.00,000.00,018.3,017.6,000.0,026.9,020.1,27.7,0001.7,0019.52,0009.73,0008.37
2024-03-07 20:39:00,SystemResetWarning,0821.6,4.99,000.00,018.3,017.6,000.0,026.9,020.1,27.8,0001.9,0019.29,0009.79,0008.42
2024-03-07 20:40:00,SystemResetWarning,0821.6,5.00,000.00,018.3,017.6,000.0,026.9,020.1,27.8,0001.7,0019.31,0009.87,0008.48
2024-03-07 20:41:00,SystemResetWarning,0821.6,5.00,000.00,018.3,017.6,000.0,026.9,020.1,27.8,0001.9,0018.85,0009.99,0008.57
2024-03-07 20:42:00,SystemResetWarning,0821.6,5.00,000.00,018.3,017.6,000.0,026.9,020.1,27.8,0002.3,0019.59,0010.10,0008.65
2024-03-07 20:43:00,SystemResetWarning,0821.6,5.00,000.00,018.3,017.6,000.0,026.9,020.1,27.9,0002.5,0020.15,0010.23,0008.75
2024-03-07 20:44:00,SystemResetWarning,0821.6,5.00,000.00,018.3,017.6,000.0,026.9,020.1,27.9,0002.2,0020.47,0010.33,0008.82
2024-03-07 20:45:00,SystemResetWarning,0821.6,5.01,000.00,018.3,017.6,000.0,026.9,020.1,27.9,0002.4,0020.28,0010.42,0008.90
2024-03-07 20:46:00,SystemResetWarning,0821.7,5.01,000.00,018.3,017.6,000.0,026.9,020.1,27.9,0002.3,0020.68,0010.50,0008.98
2024-03-07 20:47:00,SystemResetWarning,0821.6,4.99,000.00,018.3,017.6,000.0,026.9,020.1,28.0,0002.1,0020.55,0010.55,0009.05
2024-03-07 20:48:00,SystemResetWarning,0821.6,4.99,000.00,018.3,017.6,000.0,026.9,020.0,28.1,0002.2,0021.01,0010.68,0009.11
2024-03-07 20:49:00,SystemResetWarning,0821.6,5.00,000.00,018.3,017.6,000.0,026.9,020.0,28.6,0002.5,0020.42,0010.70,0009.15
2024-03-07 20:50:00,SystemResetWarning,0821.6,5.01,000.00,018.3,017.6,000.0,026.9,020.0,28.3,0002.2,0021.38,0010.71,0009.16
2024-03-07 20:51:00,SystemResetWarning,0821.6,5.01,000.00,018.3,017.6,000.0,026.9,020.0,28.2,0002.2,0020.87,0010.75,0009.18
2024-03-07 20:52:00,SystemResetWarning,0821.6,5.00,000.00,018.3,017.6,000.0,026.9,020.0,28.2,0002.0,0020.70,0010.72,0009.17
2024-03-07 20:53:00,SystemResetWarning,0821.6,5.00,000.00,018.3,017.6,000.0,026.9,020.0,28.3,0001.7,0019.99,0010.65,0009.16
2024-03-07 20:54:00,SystemResetWarning,0821.6,5.00,000.00,018.3,017.6,000.0,026.9,020.0,28.3,0001.1,0020.19,0010.58,0009.12
2024-03-07 20:55:00,SystemResetWarning,0821.6,5.00,000.00,018.3,017.6,000.0,026.8,020.0,28.3,0001.0,0020.06,0010.50,0009.10
2024-03-07 20:56:00,SystemResetWarning,0821.6,5.00,000.00,018.3,017.6,000.0,026.8,020.0,28.2,0000.5,0020.19,0010.44,0009.06
2024-03-07 20:57:00,SystemResetWarning,0821.6,4.99,000.00,018.3,017.6,000.0,026.8,020.0,28.1,0000.6,0019.96,0010.36,0009.01
2024-03-07 20:58:00,SystemResetWarning,0821.7,5.00,000.00,018.3,017.5,000.0,026.9,020.0,28.2,0000.5,0019.83,0010.34,0008.98
2024-03-07 20:59:00,SystemResetWarning,0821.6,5.01,000.00,018.3,017.5,000.0,026.9,020.0,28.2,0000.2,0019.76,0010.27,0008.95
